Time,TemperatureF,DewpointF,PressureIn,WindDirection,WindDirectionDegrees,WindSpeedMPH,WindSpeedGustMPH,Humidity,HourlyPrecipIn,Conditions,Clouds,dailyrainin,SoftwareType,DateUTC
2013-01-06 00:07:00,34.6,32.0,30.08,SW,214,4.0,11.0,91,0.00,,,0.00,weatherlink.com 1.10,2013-01-06 06:07:00,
2013-01-06 00:22:00,34.6,32.0,30.07,SSW,205,5.0,12.0,91,0.00,,,0.00,weatherlink.com 1.10,2013-01-06 06:22:00,
2013-01-06 00:37:00,34.8,32.0,30.07,SW,214,6.0,12.0,90,0.00,,,0.00,weatherlink.com 1.10,2013-01-06 06:37:00,
2013-01-06 00:52:00,34.9,32.0,30.07,SW,219,4.0,14.0,89,0.00,,,0.00,weatherlink.com 1.10,2013-01-06 06:52:00,
2013-01-06 01:07:00,35.0,32.0,30.06,SSW,207,4.0,11.0,89,0.00,,,0.00,weatherlink.com 1.10,2013-01-06 07:07:00,
2013-01-06 01:22:00,35.1,32.0,30.06,SW,220,6.0,12.0,88,0.00,,,0.00,weatherlink.com 1.10,2013-01-06 07:22:00,
2013-01-06 01:37:00,35.0,32.0,30.06,South,173,5.0,11.0,88,0.00,,,0.00,weatherlink.com 1.10,2013-01-06 07:37:00,
2013-01-06 01:52:00,35.0,32.0,30.05,SW,214,4.0,9.0,89,0.00,,,0.00,weatherlink.com 1.10,2013-01-06 07:52:00,
2013-01-06 02:07:00,35.1,32.0,30.06,SSW,193,5.0,10.0,88,0.00,,,0.00,weatherlink.com 1.10,2013-01-06 08:07:00,
2013-01-06 02:22:00,35.2,32.0,30.06,SSW,205,4.0,9.0,89,0.00,,,0.00,weatherlink.com 1.10,2013-01-06 08:22:00,
2013-01-06 02:37:00,35.2,32.0,30.05,SW,220,4.0,9.0,89,0.00,,,0.00,weatherlink.com 1.10,2013-01-06 08:37:00,
2013-01-06 02:52:00,35.2,32.0,30.05,SSW,207,3.0,9.0,89,0.00,,,0.00,weatherlink.com 1.10,2013-01-06 08:52:00,
2013-01-06 03:08:00,35.3,32.0,30.05,SW,222,5.0,9.0,89,0.00,,,0.00,weatherlink.com 1.10,2013-01-06 09:08:00,
2013-01-06 03:22:00,35.3,32.0,30.04,SW,229,4.0,13.0,89,0.00,,,0.00,weatherlink.com 1.10,2013-01-06 09:22:00,
2013-01-06 03:37:00,35.3,32.0,30.04,SSW,200,4.0,9.0,89,0.00,,,0.00,weatherlink.com 1.10,2013-01-06 09:37:00,
2013-01-06 03:52:00,35.3,32.0,30.04,West,275,5.0,11.0,89,0.00,,,0.00,weatherlink.com 1.10,2013-01-06 09:52:00,
2013-01-06 04:07:00,35.3,32.0,30.03,SW,234,6.0,12.0,89,0.00,,,0.00,weatherlink.com 1.10,2013-01-06 10:07:00,
2013-01-06 04:22:00,35.3,32.0,30.03,WSW,249,10.0,10.0,89,0.00,,,0.00,weatherlink.com 1.10,2013-01-06 10:22:00,
2013-01-06 04:37:00,35.3,32.0,30.02,WSW,248,5.0,12.0,89,0.00,,,0.00,weatherlink.com 1.10,2013-01-06 10:37:00,
2013-01-06 04:52:00,35.2,33.0,30.02,WNW,296,5.0,13.0,90,0.00,,,0.00,weatherlink.com 1.10,2013-01-06 10:52:00,
2013-01-06 05:07:00,35.1,33.0,30.02,WSW,248,7.0,11.0,90,0.00,,,0.00,weatherlink.com 1.10,2013-01-06 11:07:00,
2013-01-06 05:22:00,35.1,33.0,30.02,WSW,247,6.0,11.0,90,0.00,,,0.00,weatherlink.com 1.10,2013-01-06 11:22:00,
2013-01-06 05:37:00,35.0,32.0,30.03,WSW,256,8.0,15.0,90,0.00,,,0.00,weatherlink.com 1.10,2013-01-06 11:37:00,
2013-01-06 05:53:00,35.0,32.0,30.03,WSW,253,7.0,13.0,90,0.00,,,0.00,weatherlink.com 1.10,2013-01-06 11:53:00,
2013-01-06 06:08:00,34.8,32.0,30.04,West,262,15.0,17.0,90,0.00,,,0.00,weatherlink.com 1.10,2013-01-06 12:08:00,
2013-01-06 06:23:00,34.5,31.0,30.05,NW,306,23.0,23.0,88,0.00,,,0.00,weatherlink.com 1.10,2013-01-06 12:23:00,
2013-01-06 06:38:00,32.4,29.0,30.06,WNW,294,13.0,16.0,86,0.00,,,0.00,weatherlink.com 1.10,2013-01-06 12:38:00,
2013-01-06 06:53:00,30.2,26.0,30.07,WNW,286,16.0,19.0,83,0.00,,,0.00,weatherlink.com 1.10,2013-01-06 12:53:00,
2013-01-06 07:08:00,28.7,24.0,30.07,WNW,283,7.0,16.0,82,0.00,,,0.00,weatherlink.com 1.10,2013-01-06 13:08:00,
2013-01-06 07:23:00,27.6,23.0,30.08,West,264,12.0,18.0,82,0.00,,,0.00,weatherlink.com 1.10,2013-01-06 13:23:00,
2013-01-06 07:38:00,26.8,22.0,30.08,West,280,8.0,19.0,83,0.00,,,0.00,weatherlink.com 1.10,2013-01-06 13:38:00,
2013-01-06 07:53:00,26.4,22.0,30.08,West,264,4.0,18.0,84,0.00,,,0.00,weatherlink.com 1.10,2013-01-06 13:53:00,
2013-01-06 08:08:00,26.3,22.0,30.10,WNW,292,6.0,14.0,85,0.00,,,0.00,weatherlink.com 1.10,2013-01-06 14:08:00,
2013-01-06 08:23:00,26.2,22.0,30.10,WNW,295,6.0,19.0,85,0.00,,,0.00,weatherlink.com 1.10,2013-01-06 14:23:00,
2013-01-06 08:38:00,26.1,22.0,30.11,NW,310,5.0,20.0,85,0.00,,,0.00,weatherlink.com 1.10,2013-01-06 14:38:00,
2013-01-06 08:53:00,25.4,22.0,30.12,WNW,286,5.0,18.0,85,0.00,,,0.00,weatherlink.com 1.10,2013-01-06 14:53:00,
2013-01-06 09:08:00,25.5,22.0,30.12,WNW,284,11.0,14.0,86,0.00,,,0.00,weatherlink.com 1.10,2013-01-06 15:08:00,
2013-01-06 09:23:00,25.8,22.0,30.13,West,280,14.0,14.0,85,0.00,,,0.00,weatherlink.com 1.10,2013-01-06 15:23:00,
2013-01-06 09:38:00,25.9,22.0,30.14,West,281,4.0,15.0,84,0.00,,,0.00,weatherlink.com 1.10,2013-01-06 15:38:00,
2013-01-06 09:53:00,26.2,22.0,30.14,West,264,8.0,17.0,84,0.00,,,0.00,weatherlink.com 1.10,2013-01-06 15:53:00,
2013-01-06 10:08:00,26.2,22.0,30.15,NW,324,12.0,16.0,83,0.00,,,0.00,weatherlink.com 1.10,2013-01-06 16:08:00,
2013-01-06 10:23:00,26.2,22.0,30.16,West,260,13.0,17.0,83,0.00,,,0.00,weatherlink.com 1.10,2013-01-06 16:23:00,
2013-01-06 10:38:00,26.1,22.0,30.16,NW,310,9.0,17.0,83,0.00,,,0.00,weatherlink.com 1.10,2013-01-06 16:38:00,
2013-01-06 10:53:00,26.0,22.0,30.16,WNW,295,11.0,18.0,83,0.00,,,0.00,weatherlink.com 1.10,2013-01-06 16:53:00,
2013-01-06 11:08:00,25.8,21.0,30.16,NW,315,7.0,14.0,83,0.00,,,0.00,weatherlink.com 1.10,2013-01-06 17:08:00,
2013-01-06 11:23:00,26.0,21.0,30.16,NW,315,12.0,17.0,82,0.00,,,0.00,weatherlink.com 1.10,2013-01-06 17:23:00,
2013-01-06 11:38:00,26.4,22.0,30.16,NNW,327,11.0,19.0,82,0.00,,,0.00,weatherlink.com 1.10,2013-01-06 17:38:00,
2013-01-06 11:53:00,26.9,22.0,30.16,NW,320,9.0,14.0,81,0.00,,,0.00,weatherlink.com 1.10,2013-01-06 17:53:00,
2013-01-06 12:08:00,28.7,23.0,30.16,NW,324,7.0,13.0,79,0.00,,,0.00,weatherlink.com 1.10,2013-01-06 18:08:00,
2013-01-06 12:23:00,28.9,23.0,30.16,NW,315,7.0,14.0,78,0.00,,,0.00,weatherlink.com 1.10,2013-01-06 18:23:00,
2013-01-06 12:38:00,28.9,23.0,30.17,West,280,7.0,13.0,78,0.00,,,0.00,weatherlink.com 1.10,2013-01-06 18:38:00,
2013-01-06 12:53:00,29.2,23.0,30.18,NNW,332,9.0,14.0,78,0.00,,,0.00,weatherlink.com 1.10,2013-01-06 18:53:00,
2013-01-06 13:08:00,29.9,24.0,30.19,NW,320,8.0,15.0,79,0.00,,,0.00,weatherlink.com 1.10,2013-01-06 19:08:00,
2013-01-06 13:23:00,30.1,24.0,30.19,NNW,330,11.0,15.0,79,0.00,,,0.00,weatherlink.com 1.10,2013-01-06 19:23:00,
2013-01-06 13:39:00,30.2,24.0,30.20,NW,320,7.0,14.0,79,0.00,,,0.00,weatherlink.com 1.10,2013-01-06 19:39:00,
2013-01-06 13:54:00,30.3,25.0,30.21,NNW,339,9.0,11.0,79,0.00,,,0.00,weatherlink.com 1.10,2013-01-06 19:54:00,
2013-01-06 14:09:00,30.4,25.0,30.22,NNW,331,4.0,11.0,79,0.00,,,0.00,weatherlink.com 1.10,2013-01-06 20:09:00,
2013-01-06 14:24:00,30.5,25.0,30.23,NW,310,10.0,12.0,79,0.00,,,0.00,weatherlink.com 1.10,2013-01-06 20:24:00,
2013-01-06 14:39:00,30.7,25.0,30.24,NW,320,3.0,8.0,79,0.00,,,0.00,weatherlink.com 1.10,2013-01-06 20:39:00,
2013-01-06 14:54:00,31.1,25.0,30.24,NW,315,5.0,8.0,79,0.00,,,0.00,weatherlink.com 1.10,2013-01-06 20:54:00,
2013-01-06 15:09:00,31.4,25.0,30.25,NW,310,4.0,7.0,78,0.00,,,0.00,weatherlink.com 1.10,2013-01-06 21:09:00,
2013-01-06 15:24:00,31.7,26.0,30.26,WNW,286,4.0,7.0,78,0.00,,,0.00,weatherlink.com 1.10,2013-01-06 21:24:00,
2013-01-06 15:39:00,32.0,26.0,30.27,WNW,303,3.0,5.0,78,0.00,,,0.00,weatherlink.com 1.10,2013-01-06 21:39:00,
2013-01-06 15:54:00,32.3,26.0,30.28,NNW,328,4.0,7.0,78,0.00,,,0.00,weatherlink.com 1.10,2013-01-06 21:54:00,
2013-01-06 16:09:00,32.7,26.0,30.28,NNW,343,5.0,13.0,77,0.00,,,0.00,weatherlink.com 1.10,2013-01-06 22:09:00,
2013-01-06 16:24:00,32.8,26.0,30.29,NW,310,6.0,15.0,77,0.00,,,0.00,weatherlink.com 1.10,2013-01-06 22:24:00,
2013-01-06 16:39:00,32.7,27.0,30.30,NNW,345,9.0,13.0,78,0.00,,,0.00,weatherlink.com 1.10,2013-01-06 22:39:00,
2013-01-06 16:54:00,32.6,26.0,30.30,NNW,346,7.0,12.0,78,0.00,,,0.00,weatherlink.com 1.10,2013-01-06 22:54:00,
2013-01-06 17:09:00,32.5,27.0,30.31,NNW,338,5.0,10.0,79,0.00,,,0.00,weatherlink.com 1.10,2013-01-06 23:09:00,
2013-01-06 17:24:00,32.5,27.0,30.32,NNW,331,5.0,11.0,79,0.00,,,0.00,weatherlink.com 1.10,2013-01-06 23:24:00,
2013-01-06 17:39:00,32.6,26.0,30.33,NNW,328,4.0,13.0,78,0.00,,,0.00,weatherlink.com 1.10,2013-01-06 23:39:00,
2013-01-06 17:54:00,32.6,26.0,30.34,WNW,302,8.0,8.0,78,0.00,,,0.00,weatherlink.com 1.10,2013-01-06 23:54:00,
2013-01-06 18:09:00,32.4,26.0,30.35,WNW,288,7.0,8.0,77,0.00,,,0.00,weatherlink.com 1.10,2013-01-07 00:09:00,
2013-01-06 18:24:00,32.1,26.0,30.36,WNW,299,4.0,11.0,77,0.00,,,0.00,weatherlink.com 1.10,2013-01-07 00:24:00,
2013-01-06 18:39:00,31.8,26.0,30.37,West,268,5.0,12.0,78,0.00,,,0.00,weatherlink.com 1.10,2013-01-07 00:39:00,
2013-01-06 18:54:00,31.4,25.0,30.38,WNW,286,6.0,12.0,78,0.00,,,0.00,weatherlink.com 1.10,2013-01-07 00:54:00,
2013-01-06 19:09:00,30.8,25.0,30.38,WNW,286,6.0,10.0,79,0.00,,,0.00,weatherlink.com 1.10,2013-01-07 01:09:00,
2013-01-06 19:24:00,30.4,25.0,30.38,WNW,297,3.0,7.0,80,0.00,,,0.00,weatherlink.com 1.10,2013-01-07 01:24:00,
2013-01-06 19:39:00,29.9,25.0,30.39,WNW,296,8.0,10.0,81,0.00,,,0.00,weatherlink.com 1.10,2013-01-07 01:39:00,
2013-01-06 19:54:00,29.7,25.0,30.40,NW,315,8.0,10.0,82,0.00,,,0.00,weatherlink.com 1.10,2013-01-07 01:54:00,
2013-01-06 20:09:00,29.4,25.0,30.40,NW,310,4.0,8.0,82,0.00,,,0.00,weatherlink.com 1.10,2013-01-07 02:09:00,
2013-01-06 20:24:00,29.2,24.0,30.40,WNW,297,4.0,7.0,82,0.00,,,0.00,weatherlink.com 1.10,2013-01-07 02:24:00,
2013-01-06 20:40:00,29.1,24.0,30.42,WNW,284,4.0,8.0,82,0.00,,,0.00,weatherlink.com 1.10,2013-01-07 02:40:00,
2013-01-06 20:55:00,29.0,25.0,30.42,NW,320,3.0,5.0,83,0.00,,,0.00,weatherlink.com 1.10,2013-01-07 02:55:00,
2013-01-06 21:10:00,28.8,24.0,30.42,West,278,2.0,6.0,82,0.00,,,0.00,weatherlink.com 1.10,2013-01-07 03:10:00,
2013-01-06 21:25:00,28.5,24.0,30.42,WNW,288,6.0,7.0,82,0.00,,,0.00,weatherlink.com 1.10,2013-01-07 03:25:00,
2013-01-06 21:40:00,28.3,24.0,30.42,WNW,295,1.0,7.0,83,0.00,,,0.00,weatherlink.com 1.10,2013-01-07 03:40:00,
2013-01-06 21:55:00,27.9,23.0,30.42,NW,320,0.0,3.0,83,0.00,,,0.00,weatherlink.com 1.10,2013-01-07 03:55:00,
2013-01-06 22:10:00,27.3,23.0,30.42,NW,320,0.0,2.0,84,0.00,,,0.00,weatherlink.com 1.10,2013-01-07 04:10:00,
2013-01-06 22:25:00,26.8,23.0,30.42,NW,320,0.0,1.0,84,0.00,,,0.00,weatherlink.com 1.10,2013-01-07 04:25:00,
2013-01-06 22:40:00,25.1,21.0,30.43,NW,320,1.0,3.0,85,0.00,,,0.00,weatherlink.com 1.10,2013-01-07 04:40:00,
2013-01-06 22:55:00,24.6,22.0,30.43,NW,320,0.0,2.0,88,0.00,,,0.00,weatherlink.com 1.10,2013-01-07 04:55:00,
2013-01-06 23:25:00,22.9,20.0,30.43,NW,320,1.0,2.0,89,0.00,,,0.00,weatherlink.com 1.10,2013-01-07 05:25:00,
2013-01-06 23:40:00,21.7,19.0,30.43,NW,320,1.0,2.0,90,0.00,,,0.00,weatherlink.com 1.10,2013-01-07 05:40:00,
2013-01-06 23:55:00,20.6,18.0,30.43,SW,234,1.0,3.0,91,0.00,,,0.00,weatherlink.com 1.10,2013-01-07 05:55:00,